contact:dominique.lefevre@mio.osupytheas.fr, maurice.libes@osupytheas.fr, didier.mallarino@osupytheas.fr
Project:EMSO http://www.emso-fr.org/EMSO-France
Depth: 2436.0 m
Title:EMSO Ligure Ouest : Data MII capteur AQUADOPP
Date,Latitude,Longitude,X_East,Y_North,Z_Up,Amplitude_X,Amplitude_Y,Amplitude_Z,Batterie,SoundSpeed,Heading,Pitch,Roll,Pressure,TIS,Speed,Direction
, degrees North, degrees East, m.s-1, m.s-1,m.s-1, 1, 1, 1, Volt, m.s-1, degree, degree, degree, dbar, degree_C, m.s-1, degree
2021-12-16T00:04:03,42.805,6.029,0.014,0.008,0.007,102.0,105.0,101.0,13.4,1505.2,326.9,-0.7,1.8,2470.586,13.28,0.016,60.3
2021-12-16T00:07:03,42.805,6.029,0.043,-0.002,0.041,102.0,105.0,100.0,13.4,1505.2,326.6,-0.7,1.8,2470.552,13.28,0.043,92.7
2021-12-16T00:10:03,42.805,6.029,0.046,0.004,0.009,99.0,106.0,101.0,13.4,1505.2,326.4,-0.8,1.8,2470.536,13.28,0.046,85.0
2021-12-16T00:13:03,42.805,6.029,0.029,0.003,0.0,101.0,106.0,102.0,13.4,1505.2,329.8,-0.8,1.8,2470.559,13.28,0.029,84.1
2021-12-16T00:16:03,42.805,6.029,0.062,0.007,0.046,101.0,106.0,101.0,13.4,1505.2,331.6,-0.7,1.8,2470.539,13.28,0.062,83.6
2021-12-16T00:19:03,42.805,6.029,0.043,0.008,0.033,102.0,105.0,100.0,13.4,1505.2,325.1,-0.8,1.8,2470.574,13.28,0.043,79.5
2021-12-16T00:22:03,42.805,6.029,0.041,-0.001,0.023,102.0,104.0,102.0,13.4,1505.2,325.3,-0.8,1.8,2470.546,13.28,0.041,91.4
2021-12-16T00:25:03,42.805,6.029,0.019,0.0,0.018,102.0,106.0,100.0,13.3,1505.2,325.8,-0.7,1.8,2470.544,13.28,0.019,90.0
2021-12-16T00:28:03,42.805,6.029,0.013,-0.011,0.0,101.0,105.0,101.0,13.3,1505.2,328.1,-0.8,1.8,2470.522,13.28,0.017,130.2
2021-12-16T00:31:03,42.805,6.029,0.033,-0.006,0.021,100.0,107.0,100.0,13.4,1505.2,329.5,-0.7,1.8,2470.549,13.28,0.033,100.3
2021-12-16T00:34:03,42.805,6.029,0.024,-0.005,-0.033,102.0,105.0,102.0,13.4,1505.2,330.1,-0.8,1.8,2470.527,13.28,0.024,101.8
2021-12-16T00:37:03,42.805,6.029,0.033,-0.027,-0.021,101.0,106.0,101.0,13.4,1505.2,324.4,-0.8,1.8,2470.551,13.28,0.042,129.3
2021-12-16T00:40:03,42.805,6.029,0.025,0.008,0.011,103.0,104.0,101.0,13.4,1505.2,330.6,-0.7,1.8,2470.525,13.28,0.026,72.3
2021-12-16T00:43:03,42.805,6.029,0.046,0.005,-0.006,104.0,104.0,102.0,13.4,1505.2,327.1,-0.7,1.8,2470.55,13.28,0.046,83.8
2021-12-16T00:46:03,42.805,6.029,0.031,0.014,0.02,101.0,105.0,102.0,13.4,1505.2,324.1,-0.8,1.8,2470.512,13.28,0.034,65.7
2021-12-16T00:49:03,42.805,6.029,0.049,0.016,0.009,101.0,104.0,101.0,13.4,1505.2,329.8,-0.7,1.8,2470.538,13.28,0.051,71.9
2021-12-16T00:52:03,42.805,6.029,0.041,0.004,0.003,103.0,105.0,100.0,13.4,1505.2,324.0,-0.8,1.8,2470.523,13.28,0.041,84.4
2021-12-16T00:55:03,42.805,6.029,0.037,-0.003,-0.005,101.0,107.0,100.0,13.4,1505.2,329.8,-0.8,1.9,2470.562,13.28,0.037,94.6
2021-12-16T00:58:03,42.805,6.029,0.066,0.006,0.038,102.0,105.0,101.0,13.4,1505.2,326.5,-0.8,1.8,2470.521,13.28,0.066,84.8
2021-12-16T01:04:03,42.805,6.029,0.049,0.036,0.048,104.0,107.0,103.0,13.3,1505.2,326.8,-0.8,1.8,2470.579,13.28,0.06,53.7
2021-12-16T01:07:03,42.805,6.029,0.011,0.033,0.036,103.0,106.0,101.0,13.4,1505.2,327.5,-0.8,1.8,2470.569,13.28,0.034,18.4
2021-12-16T01:10:02,42.805,6.029,0.04,0.014,0.014,102.0,106.0,101.0,13.3,1505.2,326.0,-0.7,1.9,2470.528,13.28,0.042,70.7
2021-12-16T01:13:03,42.805,6.029,0.061,-0.008,0.031,102.0,106.0,101.0,13.4,1505.2,330.5,-0.7,1.8,2470.517,13.28,0.061,97.5
2021-12-16T01:16:03,42.805,6.029,0.058,-0.004,0.004,102.0,104.0,101.0,13.4,1505.2,328.9,-0.7,1.8,2470.516,13.28,0.058,93.9
2021-12-16T01:19:03,42.805,6.029,0.039,-0.009,-0.016,102.0,106.0,100.0,13.3,1505.2,329.4,-0.7,1.9,2470.532,13.28,0.04,103.0
2021-12-16T01:22:03,42.805,6.029,0.025,-0.006,0.004,102.0,106.0,101.0,13.4,1505.2,326.7,-0.7,1.8,2470.545,13.28,0.025,103.5
2021-12-16T01:25:03,42.805,6.029,0.034,-0.001,0.005,102.0,105.0,101.0,13.3,1505.2,331.0,-0.7,1.8,2470.541,13.28,0.034,91.7
2021-12-16T01:28:03,42.805,6.029,0.025,0.011,0.011,103.0,102.0,101.0,13.3,1505.2,329.6,-0.7,1.8,2470.523,13.28,0.027,66.3
2021-12-16T01:31:03,42.805,6.029,0.037,-0.004,0.0,102.0,105.0,100.0,13.4,1505.2,325.3,-0.7,1.8,2470.561,13.28,0.037,96.2
2021-12-16T01:34:03,42.805,6.029,0.046,-0.023,-0.008,102.0,105.0,100.0,13.4,1505.2,331.0,-0.8,1.8,2470.507,13.28,0.051,116.6
2021-12-16T01:37:03,42.805,6.029,0.025,0.005,0.004,101.0,105.0,101.0,13.4,1505.2,330.0,-0.7,1.8,2470.562,13.28,0.025,78.7
2021-12-16T01:40:03,42.805,6.029,0.054,-0.005,0.054,103.0,105.0,100.0,13.4,1505.2,327.8,-0.7,1.8,2470.569,13.28,0.054,95.3
2021-12-16T01:43:03,42.805,6.029,0.012,0.001,0.012,102.0,103.0,100.0,13.4,1505.2,324.8,-0.8,1.8,2470.564,13.28,0.012,85.2
2021-12-16T01:46:03,42.805,6.029,0.039,-0.015,-0.022,102.0,103.0,101.0,13.4,1505.2,329.1,-0.8,1.8,2470.571,13.28,0.041,111.0
2021-12-16T01:49:03,42.805,6.029,0.038,-0.001,0.014,102.0,104.0,101.0,13.3,1505.2,326.9,-0.8,1.8,2470.567,13.28,0.038,91.5
2021-12-16T01:52:03,42.805,6.029,0.031,0.015,0.024,102.0,102.0,101.0,13.4,1505.2,328.9,-0.8,1.8,2470.557,13.28,0.034,64.2
2021-12-16T01:55:03,42.805,6.029,0.054,-0.009,0.031,102.0,105.0,101.0,13.4,1505.2,325.0,-0.8,1.8,2470.565,13.28,0.054,99.5
2021-12-16T01:58:03,42.805,6.029,0.029,-0.01,0.016,101.0,102.0,101.0,13.3,1505.2,329.3,-0.8,1.8,2470.592,13.28,0.03,109.0
2021-12-16T02:04:03,42.805,6.029,0.056,-0.007,-0.004,102.0,104.0,101.0,13.4,1505.2,331.4,-0.8,1.8,2470.617,13.28,0.056,97.1
2021-12-16T02:07:03,42.805,6.029,0.019,0.013,0.013,102.0,103.0,101.0,13.4,1505.2,329.1,-0.7,1.8,2470.58,13.28,0.023,55.6
2021-12-16T02:10:03,42.805,6.029,0.038,-0.012,-0.007,101.0,103.0,100.0,13.3,1505.2,329.5,-0.8,1.8,2470.623,13.28,0.039,107.5
2021-12-16T02:13:03,42.805,6.029,0.023,0.012,0.004,103.0,101.0,101.0,13.4,1505.2,329.9,-0.7,1.8,2470.597,13.28,0.025,62.4
2021-12-16T02:16:03,42.805,6.029,0.038,-0.007,0.002,103.0,103.0,101.0,13.4,1505.2,325.7,-0.7,1.8,2470.598,13.28,0.038,100.4
2021-12-16T02:19:03,42.805,6.029,0.03,-0.01,-0.011,102.0,103.0,102.0,13.3,1505.2,330.3,-0.8,1.8,2470.596,13.28,0.031,108.4
2021-12-16T02:22:03,42.805,6.029,0.031,-0.008,0.011,103.0,103.0,100.0,13.3,1505.2,327.3,-0.8,1.8,2470.63,13.28,0.032,104.5
2021-12-16T02:25:03,42.805,6.029,0.021,0.001,0.01,102.0,104.0,101.0,13.3,1505.2,327.2,-0.8,1.8,2470.612,13.28,0.021,87.3
2021-12-16T02:28:03,42.805,6.029,0.038,-0.017,0.001,103.0,104.0,100.0,13.4,1505.2,326.6,-0.8,1.9,2470.63,13.28,0.041,114.1
2021-12-16T02:31:03,42.805,6.029,0.007,-0.004,-0.02,100.0,102.0,102.0,13.4,1505.2,325.0,-0.8,1.8,2470.618,13.28,0.008,119.7
2021-12-16T02:34:03,42.805,6.029,0.022,0.007,0.011,102.0,102.0,100.0,13.4,1505.2,330.7,-0.8,1.8,2470.642,13.28,0.023,72.4
2021-12-16T02:37:03,42.805,6.029,0.029,-0.004,-0.006,102.0,104.0,101.0,13.4,1505.2,329.5,-0.7,1.8,2470.606,13.28,0.029,97.8
2021-12-16T02:40:03,42.805,6.029,0.048,0.003,-0.009,102.0,103.0,102.0,13.3,1505.2,328.0,-0.8,1.8,2470.636,13.28,0.048,86.4
2021-12-16T02:43:03,42.805,6.029,0.048,0.007,0.0,101.0,103.0,101.0,13.4,1505.2,328.6,-0.8,1.9,2470.635,13.28,0.048,81.7
2021-12-16T02:46:03,42.805,6.029,0.017,0.0,0.014,101.0,104.0,101.0,13.4,1505.2,330.3,-0.7,1.8,2470.631,13.28,0.017,90.0
2021-12-16T02:49:03,42.805,6.029,0.051,-0.006,-0.019,102.0,102.0,101.0,13.3,1505.2,329.5,-0.8,1.8,2470.659,13.28,0.051,96.7
2021-12-16T02:52:03,42.805,6.029,0.023,0.011,0.008,101.0,102.0,103.0,13.3,1505.2,327.2,-0.7,1.8,2470.612,13.28,0.025,64.4
2021-12-16T02:55:03,42.805,6.029,0.01,-0.009,0.009,102.0,103.0,101.0,13.3,1505.2,329.0,-0.8,1.8,2470.655,13.28,0.013,132.0
2021-12-16T02:58:03,42.805,6.029,0.011,0.014,0.008,102.0,103.0,100.0,13.4,1505.2,324.4,-0.8,1.8,2470.657,13.28,0.017,38.2
2021-12-16T03:04:03,42.805,6.029,0.023,-0.001,0.001,102.0,103.0,101.0,13.3,1505.2,328.3,-0.8,1.8,2470.678,13.28,0.023,92.5
2021-12-16T03:07:03,42.805,6.029,0.036,0.009,0.006,104.0,102.0,101.0,13.4,1505.2,329.8,-0.8,1.8,2470.641,13.28,0.037,76.0
2021-12-16T03:10:03,42.805,6.029,0.031,-0.006,0.011,102.0,102.0,101.0,13.4,1505.2,326.9,-0.7,1.8,2470.659,13.28,0.031,101.0
2021-12-16T03:13:03,42.805,6.029,0.022,-0.019,0.008,101.0,104.0,101.0,13.4,1505.2,331.1,-0.8,1.8,2470.696,13.28,0.029,130.8
2021-12-16T03:16:03,42.805,6.029,0.034,-0.006,0.007,103.0,103.0,100.0,13.4,1505.2,329.6,-0.7,1.8,2470.655,13.28,0.034,100.0
2021-12-16T03:19:03,42.805,6.029,0.046,0.0,0.021,101.0,103.0,101.0,13.4,1505.2,325.9,-0.8,1.8,2470.69,13.28,0.046,90.0
2021-12-16T03:22:03,42.805,6.029,0.026,-0.004,0.004,103.0,103.0,100.0,13.4,1505.2,326.7,-0.7,1.9,2470.635,13.28,0.026,98.7
2021-12-16T03:25:03,42.805,6.029,0.02,0.005,-0.002,103.0,103.0,101.0,13.4,1505.2,326.8,-0.7,1.8,2470.686,13.28,0.02,76.0
2021-12-16T03:28:03,42.805,6.029,0.032,0.009,0.002,102.0,105.0,100.0,13.4,1505.2,330.6,-0.7,1.9,2470.632,13.28,0.033,74.3
2021-12-16T03:31:03,42.805,6.029,0.052,-0.013,0.014,103.0,102.0,101.0,13.4,1505.2,324.1,-0.8,1.8,2470.669,13.28,0.053,104.0
2021-12-16T03:34:03,42.805,6.029,0.013,-0.009,-0.012,102.0,104.0,101.0,13.4,1505.2,324.1,-0.8,1.8,2470.648,13.28,0.015,124.7
2021-12-16T03:37:03,42.805,6.029,0.037,0.008,0.035,102.0,103.0,103.0,13.4,1505.2,325.2,-0.8,1.8,2470.676,13.28,0.037,77.8
2021-12-16T03:40:03,42.805,6.029,0.0,0.005,0.008,102.0,103.0,101.0,13.3,1505.2,325.0,-0.8,1.8,2470.62,13.28,0.005,0.0
2021-12-16T03:43:03,42.805,6.029,0.031,-0.005,0.024,103.0,103.0,102.0,13.4,1505.2,330.2,-0.8,1.9,2470.686,13.28,0.031,99.2
2021-12-16T03:46:03,42.805,6.029,0.035,-0.019,-0.015,103.0,104.0,100.0,13.3,1505.2,329.4,-0.7,1.8,2470.681,13.28,0.039,118.5
2021-12-16T03:49:03,42.805,6.029,0.017,0.003,0.002,102.0,103.0,101.0,13.3,1505.2,327.1,-0.8,1.8,2470.667,13.28,0.017,80.0
2021-12-16T03:52:03,42.805,6.029,0.045,0.0,-0.006,102.0,103.0,102.0,13.4,1505.2,330.7,-0.8,1.8,2470.688,13.28,0.045,90.0
2021-12-16T03:55:03,42.805,6.029,0.051,-0.005,0.038,103.0,103.0,100.0,13.4,1505.2,331.4,-0.8,1.8,2470.665,13.28,0.051,95.6
2021-12-16T03:58:03,42.805,6.029,0.022,0.005,-0.006,102.0,103.0,102.0,13.3,1505.2,327.5,-0.8,1.8,2470.688,13.28,0.022,77.2
2021-12-16T04:04:03,42.805,6.029,0.026,0.012,0.008,102.0,103.0,101.0,13.4,1505.2,327.8,-0.7,1.8,2470.713,13.28,0.028,65.2
2021-12-16T04:07:03,42.805,6.029,0.017,0.006,0.003,103.0,103.0,101.0,13.4,1505.2,328.1,-0.8,1.8,2470.689,13.28,0.018,70.6
2021-12-16T04:10:03,42.805,6.029,0.029,0.014,0.033,102.0,103.0,102.0,13.4,1505.2,326.9,-0.7,1.8,2470.71,13.28,0.032,64.2
2021-12-16T04:13:03,42.805,6.029,0.008,0.011,-0.001,102.0,104.0,101.0,13.3,1505.2,326.9,-0.7,1.8,2470.686,13.28,0.013,36.0
2021-12-16T04:16:03,42.805,6.029,0.027,0.001,-0.004,102.0,103.0,102.0,13.4,1505.2,326.0,-0.8,1.8,2470.685,13.28,0.027,87.9
2021-12-16T04:19:03,42.805,6.029,0.023,-0.007,0.008,104.0,104.0,100.0,13.3,1505.2,327.7,-0.7,1.8,2470.689,13.28,0.024,106.9
2021-12-16T04:22:03,42.805,6.029,0.026,0.0,0.001,103.0,103.0,101.0,13.4,1505.2,330.8,-0.8,1.8,2470.676,13.28,0.026,90.0
2021-12-16T04:25:03,42.805,6.029,0.009,-0.003,0.021,102.0,103.0,101.0,13.3,1505.2,328.4,-0.7,1.8,2470.677,13.28,0.009,108.4
2021-12-16T04:28:03,42.805,6.029,0.039,0.002,0.039,103.0,102.0,101.0,13.4,1505.2,329.5,-0.8,1.8,2470.65,13.28,0.039,87.1
2021-12-16T04:31:03,42.805,6.029,0.029,-0.001,0.018,101.0,103.0,101.0,13.3,1505.2,327.9,-0.8,1.8,2470.718,13.28,0.029,92.0
2021-12-16T04:34:03,42.805,6.029,0.03,-0.009,-0.004,103.0,102.0,100.0,13.4,1505.2,328.4,-0.7,1.8,2470.693,13.28,0.031,106.7
2021-12-16T04:37:03,42.805,6.029,0.028,0.003,0.018,102.0,104.0,101.0,13.3,1505.2,330.8,-0.8,1.8,2470.689,13.28,0.028,83.9
2021-12-16T04:40:03,42.805,6.029,0.024,-0.01,-0.007,102.0,103.0,102.0,13.3,1505.2,329.8,-0.8,1.8,2470.725,13.28,0.026,112.6
2021-12-16T04:43:03,42.805,6.029,0.011,-0.012,-0.017,103.0,103.0,101.0,13.4,1505.2,326.6,-0.8,1.8,2470.724,13.28,0.016,137.5
2021-12-16T04:46:03,42.805,6.029,-0.007,0.025,0.008,102.0,103.0,100.0,13.4,1505.2,329.4,-0.7,1.8,2470.708,13.28,0.025,344.4
2021-12-16T04:49:03,42.805,6.029,0.01,-0.017,-0.015,101.0,102.0,103.0,13.3,1505.2,326.3,-0.7,1.8,2470.665,13.28,0.019,149.5
2021-12-16T04:52:03,42.805,6.029,0.002,0.003,0.003,102.0,103.0,101.0,13.4,1505.2,324.7,-0.8,1.9,2470.731,13.28,0.003,33.7
2021-12-16T04:55:03,42.805,6.029,0.017,0.019,0.031,102.0,105.0,101.0,13.3,1505.2,327.8,-0.8,1.8,2470.715,13.28,0.025,41.8
2021-12-16T04:58:03,42.805,6.029,0.022,0.01,0.027,103.0,103.0,101.0,13.4,1505.2,329.8,-0.7,1.8,2470.715,13.28,0.024,65.6
2021-12-16T05:04:03,42.805,6.029,0.025,0.008,-0.01,102.0,104.0,101.0,13.4,1505.2,326.5,-0.7,1.8,2470.712,13.28,0.026,72.3
2021-12-16T05:07:03,42.805,6.029,0.025,0.02,0.037,103.0,105.0,101.0,13.4,1505.2,327.3,-0.7,1.8,2470.742,13.28,0.032,51.3
2021-12-16T05:10:03,42.805,6.029,0.033,0.001,0.033,102.0,103.0,102.0,13.4,1505.2,328.7,-0.8,1.8,2470.758,13.28,0.033,88.3
2021-12-16T05:13:03,42.805,6.029,0.006,0.002,0.002,102.0,104.0,101.0,13.3,1505.2,325.3,-0.8,1.8,2470.745,13.28,0.006,71.6
2021-12-16T05:16:03,42.805,6.029,-0.002,0.018,-0.011,101.0,103.0,101.0,13.3,1505.2,331.2,-0.8,1.8,2470.723,13.28,0.018,353.7
2021-12-16T05:19:03,42.805,6.029,0.037,-0.003,0.009,103.0,104.0,101.0,13.4,1505.2,329.6,-0.8,1.8,2470.708,13.28,0.037,94.6
2021-12-16T05:22:03,42.805,6.029,0.031,-0.004,-0.026,102.0,104.0,101.0,13.3,1505.2,324.7,-0.8,1.8,2470.685,13.28,0.031,97.3
2021-12-16T05:25:03,42.805,6.029,0.015,0.029,0.015,102.0,104.0,102.0,13.4,1505.2,326.0,-0.7,1.8,2470.726,13.28,0.032,27.4
2021-12-16T05:28:03,42.805,6.029,0.037,0.0,0.008,103.0,104.0,101.0,13.4,1505.2,332.0,-0.7,1.8,2470.72,13.28,0.037,90.0
2021-12-16T05:31:03,42.805,6.029,0.019,0.028,0.0,103.0,104.0,100.0,13.4,1505.2,330.6,-0.8,1.8,2470.698,13.28,0.033,34.2
2021-12-16T05:34:03,42.805,6.029,0.025,0.021,0.009,103.0,104.0,100.0,13.3,1505.2,328.4,-0.7,1.8,2470.719,13.28,0.032,50.0
2021-12-16T05:37:03,42.805,6.029,0.016,0.006,0.001,103.0,103.0,101.0,13.4,1505.2,329.1,-0.7,1.8,2470.756,13.28,0.017,69.4
2021-12-16T05:40:03,42.805,6.029,0.0,0.016,-0.025,103.0,105.0,101.0,13.4,1505.2,330.0,-0.8,1.8,2470.716,13.28,0.016,0.0
2021-12-16T05:43:03,42.805,6.029,-0.007,0.0,-0.027,102.0,102.0,101.0,13.4,1505.2,326.9,-0.7,1.8,2470.724,13.28,0.007,270.0
2021-12-16T05:46:03,42.805,6.029,0.04,0.001,0.043,102.0,104.0,100.0,13.4,1505.2,331.2,-0.7,1.8,2470.725,13.28,0.04,88.6
2021-12-16T05:49:03,42.805,6.029,0.006,0.027,0.007,102.0,104.0,101.0,13.4,1505.2,330.1,-0.8,1.8,2470.735,13.28,0.027,12.5
2021-12-16T05:52:03,42.805,6.029,0.005,0.02,0.009,103.0,104.0,101.0,13.4,1505.2,326.9,-0.8,1.8,2470.778,13.28,0.02,14.0
2021-12-16T05:55:03,42.805,6.029,0.01,0.023,0.017,103.0,103.0,100.0,13.3,1505.2,329.0,-0.8,1.8,2470.743,13.28,0.025,23.5
2021-12-16T05:58:03,42.805,6.029,0.008,0.002,-0.006,104.0,104.0,100.0,13.3,1505.2,325.1,-0.8,1.8,2470.705,13.28,0.008,76.0
2021-12-16T06:04:03,42.805,6.029,0.014,0.009,0.026,103.0,103.0,101.0,13.4,1505.2,327.6,-0.8,1.8,2470.797,13.28,0.016,57.3
2021-12-16T06:07:03,42.805,6.029,0.018,0.01,0.007,102.0,104.0,101.0,13.4,1505.2,329.8,-0.7,1.8,2470.766,13.28,0.02,60.9
2021-12-16T06:10:03,42.805,6.029,0.015,0.02,-0.021,103.0,103.0,100.0,13.4,1505.2,329.5,-0.7,1.8,2470.78,13.28,0.025,36.9
2021-12-16T06:13:03,42.805,6.029,0.021,0.007,-0.018,103.0,103.0,101.0,13.3,1505.2,332.0,-0.7,1.8,2470.767,13.28,0.022,71.6
2021-12-16T06:16:03,42.805,6.029,0.004,0.017,0.012,103.0,105.0,101.0,13.3,1505.2,328.4,-0.8,1.8,2470.766,13.28,0.017,13.2
2021-12-16T06:19:03,42.805,6.029,0.001,0.001,-0.014,102.0,105.0,101.0,13.4,1505.2,326.2,-0.7,1.8,2470.768,13.28,0.001,45.0
2021-12-16T06:22:03,42.805,6.029,0.002,0.015,0.001,103.0,105.0,101.0,13.3,1505.2,326.9,-0.7,1.8,2470.751,13.28,0.015,7.6
2021-12-16T06:25:03,42.805,6.029,0.024,0.011,0.013,103.0,103.0,101.0,13.4,1505.2,327.1,-0.7,1.8,2470.746,13.28,0.026,65.4
2021-12-16T06:28:03,42.805,6.029,0.023,0.024,0.0,102.0,102.0,101.0,13.4,1505.2,328.2,-0.8,1.9,2470.754,13.28,0.033,43.8
2021-12-16T06:31:03,42.805,6.029,0.003,0.002,-0.008,103.0,104.0,101.0,13.4,1505.2,327.7,-0.8,1.8,2470.758,13.28,0.003,56.3
2021-12-16T06:34:03,42.805,6.029,0.024,0.025,0.02,103.0,104.0,100.0,13.4,1505.2,327.6,-0.8,1.9,2470.719,13.28,0.034,43.8
2021-12-16T06:37:03,42.805,6.029,0.009,0.031,0.005,102.0,105.0,101.0,13.3,1505.2,326.8,-0.8,1.8,2470.747,13.28,0.032,16.2
2021-12-16T06:40:03,42.805,6.029,-0.002,0.004,-0.006,103.0,104.0,101.0,13.4,1505.2,328.9,-0.7,1.8,2470.766,13.28,0.004,333.4
2021-12-16T06:43:03,42.805,6.029,0.022,-0.004,0.001,102.0,104.0,101.0,13.4,1505.2,326.2,-0.8,1.8,2470.765,13.28,0.022,100.3
2021-12-16T06:46:03,42.805,6.029,0.013,0.005,0.014,102.0,104.0,101.0,13.4,1505.2,329.6,-0.8,1.8,2470.77,13.29,0.013,69.0
2021-12-16T06:49:03,42.805,6.029,0.021,0.023,0.018,103.0,106.0,100.0,13.4,1505.2,326.0,-0.7,1.9,2470.749,13.29,0.031,42.4
2021-12-16T06:52:03,42.805,6.029,0.01,0.014,-0.004,103.0,103.0,101.0,13.4,1505.2,326.5,-0.8,1.8,2470.739,13.29,0.017,35.5
2021-12-16T06:55:03,42.805,6.029,0.008,0.032,0.031,103.0,104.0,101.0,13.4,1505.2,326.9,-0.7,1.8,2470.752,13.29,0.032,14.0
2021-12-16T06:58:03,42.805,6.029,0.037,0.033,0.023,103.0,105.0,101.0,13.3,1505.2,327.2,-0.8,1.8,2470.715,13.28,0.049,48.3
2021-12-16T07:04:03,42.805,6.029,0.03,0.013,0.007,102.0,104.0,101.0,13.4,1505.2,328.0,-0.8,1.8,2470.771,13.28,0.032,66.6
2021-12-16T07:07:03,42.805,6.029,0.05,0.016,0.034,102.0,104.0,101.0,13.4,1505.2,331.2,-0.7,1.8,2470.731,13.28,0.052,72.3
2021-12-16T07:10:03,42.805,6.029,0.035,0.01,0.023,102.0,106.0,99.0,13.4,1505.2,330.7,-0.8,1.8,2470.745,13.28,0.036,74.1
2021-12-16T07:13:03,42.805,6.029,0.023,0.018,0.026,102.0,105.0,101.0,13.4,1505.2,328.5,-0.7,1.8,2470.729,13.28,0.029,52.0
2021-12-16T07:16:03,42.805,6.029,-0.009,0.018,-0.024,101.0,106.0,101.0,13.4,1505.2,324.6,-0.7,1.8,2470.742,13.28,0.02,333.4
2021-12-16T07:19:03,42.805,6.029,0.002,0.022,0.002,102.0,105.0,100.0,13.3,1505.2,332.0,-0.7,1.8,2470.727,13.28,0.022,5.2
2021-12-16T07:22:03,42.805,6.029,0.026,0.004,0.014,102.0,105.0,100.0,13.3,1505.2,328.2,-0.8,1.8,2470.712,13.28,0.026,81.3
2021-12-16T07:25:03,42.805,6.029,0.013,0.023,0.024,103.0,106.0,101.0,13.4,1505.2,331.3,-0.8,1.8,2470.711,13.28,0.026,29.5
2021-12-16T07:28:03,42.805,6.029,0.005,0.006,0.005,103.0,106.0,100.0,13.4,1505.2,325.8,-0.8,1.8,2470.701,13.28,0.007,39.8
2021-12-16T07:31:03,42.805,6.029,0.022,0.023,0.007,102.0,105.0,101.0,13.3,1505.2,326.3,-0.8,1.9,2470.706,13.28,0.031,43.7
2021-12-16T07:34:03,42.805,6.029,0.022,0.014,0.004,102.0,105.0,100.0,13.3,1505.2,327.1,-0.7,1.8,2470.717,13.28,0.026,57.5
2021-12-16T07:37:03,42.805,6.029,0.014,0.001,0.016,102.0,105.0,101.0,13.4,1505.2,326.6,-0.7,1.8,2470.729,13.28,0.014,85.9
2021-12-16T07:40:03,42.805,6.029,0.022,0.024,0.031,103.0,103.0,101.0,13.3,1505.2,327.1,-0.7,1.8,2470.726,13.28,0.032,42.5
2021-12-16T07:43:03,42.805,6.029,0.015,0.025,-0.014,101.0,106.0,101.0,13.4,1505.2,329.4,-0.7,1.8,2470.74,13.28,0.029,31.0
2021-12-16T07:46:03,42.805,6.029,0.015,0.017,-0.001,102.0,106.0,100.0,13.4,1505.2,326.9,-0.7,1.8,2470.681,13.28,0.022,41.4
2021-12-16T07:49:03,42.805,6.029,0.002,0.019,0.006,103.0,103.0,100.0,13.3,1505.2,324.9,-0.8,1.8,2470.726,13.28,0.019,6.0
2021-12-16T07:52:03,42.805,6.029,0.016,0.025,0.011,102.0,105.0,102.0,13.4,1505.2,326.6,-0.8,1.8,2470.712,13.28,0.029,32.6
2021-12-16T07:55:03,42.805,6.029,0.027,-0.002,-0.04,104.0,102.0,101.0,13.3,1505.2,323.8,-0.8,1.8,2470.644,13.28,0.027,94.2
2021-12-16T07:58:03,42.805,6.029,0.023,0.003,-0.002,100.0,106.0,100.0,13.4,1505.2,327.3,-0.7,1.8,2470.702,13.28,0.023,82.6
2021-12-16T08:04:03,42.805,6.029,0.031,-0.007,-0.005,103.0,105.0,101.0,13.4,1505.2,329.1,-0.7,1.8,2470.734,13.28,0.031,102.7
2021-12-16T08:07:03,42.805,6.029,0.004,0.018,0.003,103.0,103.0,101.0,13.4,1505.2,325.7,-0.7,1.8,2470.736,13.28,0.018,12.5
2021-12-16T08:10:03,42.805,6.029,0.009,0.01,0.001,102.0,104.0,101.0,13.4,1505.2,326.4,-0.8,1.8,2470.723,13.28,0.013,42.0
2021-12-16T08:13:03,42.805,6.029,0.036,0.0,0.006,103.0,106.0,101.0,13.4,1505.2,329.1,-0.8,1.8,2470.737,13.28,0.036,90.0
2021-12-16T08:16:03,42.805,6.029,0.003,0.015,-0.007,102.0,104.0,101.0,13.4,1505.2,329.2,-0.7,1.8,2470.717,13.28,0.015,11.3
2021-12-16T08:19:03,42.805,6.029,0.028,0.03,0.003,102.0,106.0,101.0,13.3,1505.2,328.1,-0.7,1.8,2470.65,13.28,0.041,43.0
2021-12-16T08:22:03,42.805,6.029,0.017,0.014,0.031,102.0,104.0,101.0,13.4,1505.2,324.6,-0.8,1.8,2470.704,13.28,0.022,50.5
2021-12-16T08:25:03,42.805,6.029,0.009,0.033,0.012,103.0,104.0,101.0,13.4,1505.2,326.6,-0.7,1.8,2470.702,13.28,0.034,15.3
2021-12-16T08:28:03,42.805,6.029,0.014,0.015,0.019,102.0,103.0,101.0,13.3,1505.2,325.8,-0.8,1.8,2470.698,13.28,0.02,43.0
2021-12-16T08:31:03,42.805,6.029,0.005,0.016,0.019,107.0,105.0,101.0,13.4,1505.2,329.8,-0.7,1.8,2470.654,13.29,0.016,17.4
2021-12-16T08:34:03,42.805,6.029,0.024,0.015,0.009,103.0,103.0,101.0,13.4,1505.2,327.7,-0.8,1.8,2470.68,13.28,0.028,58.0
2021-12-16T08:37:03,42.805,6.029,0.021,0.016,0.032,102.0,104.0,100.0,13.4,1505.2,329.4,-0.8,1.8,2470.69,13.28,0.026,52.7
2021-12-16T08:40:03,42.805,6.029,0.014,0.016,0.017,102.0,104.0,101.0,13.4,1505.2,325.0,-0.7,1.8,2470.7,13.28,0.021,41.2
2021-12-16T08:43:03,42.805,6.029,0.04,0.014,0.005,103.0,104.0,101.0,13.4,1505.2,326.6,-0.8,1.8,2470.649,13.29,0.042,70.7
2021-12-16T08:46:03,42.805,6.029,0.008,0.012,0.023,104.0,104.0,100.0,13.4,1505.2,327.4,-0.7,1.8,2470.674,13.29,0.014,33.7
2021-12-16T08:49:03,42.805,6.029,0.016,0.006,-0.009,101.0,105.0,101.0,13.4,1505.2,327.9,-0.8,1.8,2470.672,13.28,0.017,69.4
2021-12-16T08:52:03,42.805,6.029,0.032,0.021,0.012,103.0,104.0,101.0,13.3,1505.2,326.6,-0.7,1.8,2470.694,13.28,0.038,56.7
2021-12-16T08:55:03,42.805,6.029,0.0,0.019,-0.003,103.0,104.0,101.0,13.3,1505.2,329.6,-0.8,1.8,2470.652,13.28,0.019,0.0
2021-12-16T08:58:03,42.805,6.029,-0.008,0.025,0.008,103.0,103.0,101.0,13.4,1505.2,329.9,-0.8,1.8,2470.672,13.28,0.026,342.3
2021-12-16T09:04:03,42.805,6.029,0.018,0.01,0.003,102.0,104.0,102.0,13.3,1505.2,330.4,-0.7,1.8,2470.724,13.28,0.02,60.9
2021-12-16T09:07:03,42.805,6.029,0.036,0.013,0.009,101.0,105.0,101.0,13.4,1505.2,329.6,-0.8,1.8,2470.702,13.28,0.038,70.1
2021-12-16T09:10:03,42.805,6.029,-0.002,0.006,-0.006,102.0,104.0,101.0,13.3,1505.2,329.3,-0.8,1.8,2470.669,13.28,0.006,341.6
2021-12-16T09:13:03,42.805,6.029,0.024,0.018,0.031,102.0,104.0,101.0,13.4,1505.2,327.8,-0.8,1.8,2470.686,13.28,0.03,53.1
2021-12-16T09:16:03,42.805,6.029,0.009,0.031,0.034,102.0,103.0,101.0,13.4,1505.2,328.3,-0.7,1.8,2470.708,13.28,0.032,16.2
2021-12-16T09:19:03,42.805,6.029,0.033,0.018,0.01,103.0,105.0,101.0,13.3,1505.2,328.7,-0.7,1.8,2470.662,13.28,0.037,61.4
2021-12-16T09:22:03,42.805,6.029,0.014,0.016,-0.004,101.0,105.0,101.0,13.4,1505.2,329.5,-0.8,1.8,2470.655,13.28,0.021,41.2
2021-12-16T09:25:03,42.805,6.029,0.035,0.022,0.015,103.0,105.0,100.0,13.4,1505.2,328.2,-0.8,1.8,2470.643,13.28,0.041,57.8
2021-12-16T09:28:03,42.805,6.029,0.031,0.001,0.026,103.0,106.0,101.0,13.4,1505.2,328.5,-0.8,1.8,2470.662,13.28,0.031,88.2
2021-12-16T09:31:03,42.805,6.029,0.018,0.019,-0.001,102.0,106.0,100.0,13.4,1505.2,325.0,-0.8,1.9,2470.617,13.28,0.026,43.5
2021-12-16T09:34:03,42.805,6.029,0.014,0.008,0.024,104.0,104.0,101.0,13.4,1505.2,328.1,-0.7,1.8,2470.622,13.28,0.016,60.3
2021-12-16T09:37:03,42.805,6.029,0.012,0.014,0.028,102.0,105.0,102.0,13.4,1505.2,326.6,-0.7,1.8,2470.624,13.29,0.018,40.6
2021-12-16T09:40:03,42.805,6.029,0.02,0.021,0.006,102.0,105.0,100.0,13.4,1505.2,329.6,-0.8,1.8,2470.617,13.28,0.028,43.6
2021-12-16T09:43:03,42.805,6.029,0.005,0.001,-0.009,102.0,106.0,101.0,13.4,1505.2,328.7,-0.8,1.8,2470.628,13.29,0.005,78.7
2021-12-16T09:46:03,42.805,6.029,0.02,0.006,-0.015,102.0,105.0,101.0,13.4,1505.2,324.5,-0.8,1.8,2470.606,13.28,0.02,73.3
2021-12-16T09:49:03,42.805,6.029,0.005,0.006,-0.029,103.0,105.0,101.0,13.4,1505.2,328.5,-0.8,1.8,2470.64,13.28,0.007,39.8
2021-12-16T09:52:03,42.805,6.029,0.001,0.02,0.019,102.0,107.0,100.0,13.4,1505.2,327.3,-0.8,1.8,2470.65,13.28,0.02,2.9
2021-12-16T09:55:03,42.805,6.029,0.042,0.034,0.024,102.0,105.0,100.0,13.4,1505.2,329.4,-0.8,1.8,2470.632,13.28,0.054,51.0
2021-12-16T09:58:03,42.805,6.029,-0.015,0.027,-0.029,103.0,105.0,101.0,13.4,1505.2,326.6,-0.7,1.8,2470.618,13.28,0.03,330.9
2021-12-16T10:04:03,42.805,6.029,0.012,0.015,-0.003,103.0,105.0,101.0,13.3,1505.2,327.5,-0.7,1.8,2470.714,13.28,0.019,38.7
2021-12-16T10:07:03,42.805,6.029,0.0,0.008,0.016,102.0,106.0,101.0,13.4,1505.2,330.3,-0.8,1.8,2470.646,13.28,0.008,0.0